DW5096 Weather Reports


time (UTC)temp
F
wind
direction
speed
knots
gust
knots
rain 1hr
in
rain 24hr
in
rain mn
in
humidity
%
barometer
mb
20260508055924 42 279 0.0 1.7 0.00 0.05 0.00 89 1005.2
20260508054422 42 279 0.0 2.6 0.00 0.05 0.00 89 1005.3
20260508052920 42 279 0.9 5.2 0.00 0.05 0.00 90 1005.4
20260508051419 42 279 0.9 5.2 0.00 0.05 0.00 90 1005.3
20260508045919 42 279 0.0 3.5 0.00 0.05 0.00 90 1005.3
20260508044420 42 279 0.9 2.6 0.00 0.05 0.00 89 1005.4
20260508041415 43 279 0.9 5.2 0.00 0.05 0.00 89 1005.1
20260508035916 43 279 0.0 2.6 0.00 0.05 0.05 90 1005.2
20260508034413 43 279 0.0 0.9 0.00 0.05 0.05 91 1005.1
20260508032912 42 279 0.0 2.6 0.00 0.05 0.05 91 1005.0
20260508031409 42 279 1.7 5.2 0.00 0.05 0.05 91 1004.9
20260508025908 42 279 1.7 5.2 0.00 0.05 0.05 92 1004.9
20260508024407 43 279 0.9 4.3 0.00 0.05 0.05 92 1005.0
20260508022905 43 279 0.9 5.2 0.00 0.05 0.05 92 1005.1
20260508021407 43 279 0.9 5.2 0.00 0.05 0.05 92 1005.2
20260508015907 43 279 1.7 5.2 0.00 0.05 0.05 92 1005.2
20260508014406 43 279 2.6 5.2 0.00 0.05 0.05 92 1005.2
20260508012901 43 279 0.9 3.5 0.00 0.05 0.05 92 1005.2
20260508011400 43 279 0.0 2.6 0.00 0.05 0.05 91 1005.2
20260508005900 43 279 1.7 5.2 0.00 0.05 0.05 91 1005.1
20260508004400 43 279 1.7 5.2 0.00 0.05 0.05 91 1005.0
20260508002855 43 279 1.7 5.2 0.00 0.05 0.05 90 1004.7
20260508001355 44 280 2.6 11.3 0.00 0.05 0.05 88 1004.5
20260507235857 44 261 2.6 11.3 0.00 0.05 0.05 86 1004.4
20260507234353 45 265 1.7 7.8 0.00 0.05 0.05 84 1004.3
20260507232851 45 262 2.6 12.2 0.00 0.05 0.05 83 1004.2
20260507231353 46 251 3.5 10.4 0.00 0.05 0.05 82 1004.0
20260507222852 48 261 3.5 9.6 0.00 0.05 0.05 80 1003.7
20260507221356 47 291 3.5 9.6 0.00 0.05 0.05 80 1003.6
20260507214346 48 275 2.6 9.6 0.00 0.05 0.05 78 1003.2
20260507212846 48 261 2.6 8.7 0.00 0.05 0.05 79 1003.2
20260507204346 49 294 5.2 12.2 0.00 0.05 0.05 77 1002.9
20260507202842 49 294 2.6 13.9 0.00 0.05 0.05 82 1002.8
20260507201343 47 279 1.7 7.0 0.00 0.05 0.05 86 1002.8
20260507195843 46 279 1.7 8.7 0.00 0.05 0.05 86 1002.7
20260507194341 46 285 5.2 10.4 0.00 0.05 0.05 86 1002.8
20260507185840 49 248 7.0 15.6 0.00 0.05 0.05 77 1002.6
20260507184341 51 300 5.2 15.6 0.00 0.05 0.05 77 1002.6
20260507182840 50 247 1.7 4.3 0.00 0.06 0.05 78 1002.4
20260507181339 50 247 0.9 6.1 0.00 0.06 0.05 80 1002.5
20260507175837 49 246 1.7 7.0 0.00 0.06 0.05 83 1002.6
20260507174336 49 219 0.9 5.2 0.00 0.06 0.05 87 1002.8
20260507172834 48 215 1.7 7.8 0.00 0.06 0.05 90 1003.0
20260507171335 47 198 0.9 5.2 0.01 0.07 0.05 92 1003.1
20260507165836 47 275 0.9 7.0 0.02 0.08 0.05 93 1003.2
20260507164335 47 277 1.7 9.6 0.05 0.09 0.05 93 1003.2
20260507162835 47 229 1.7 5.2 0.05 0.09 0.05 93 1003.3
20260507161334 47 188 0.9 7.8 0.04 0.09 0.04 92 1003.5
20260507155835 47 265 0.0 0.9 0.03 0.09 0.03 92 1003.5
20260507154337 47 265 0.0 2.6 0.00 0.08 0.00 92 1003.6
20260507152833 46 265 0.0 2.6 0.00 0.09 0.00 92 1003.7
20260507151333 46 265 0.0 2.6 0.00 0.11 0.00 92 1003.9
20260507145832 46 265 0.9 3.5 0.00 0.13 0.00 91 1004.0
20260507144332 46 265 0.9 5.2 0.00 0.15 0.00 92 1003.9
20260507141332 46 265 0.9 6.1 0.00 0.17 0.00 92 1004.2
20260507135830 45 264 1.7 5.2 0.00 0.18 0.00 93 1004.3
20260507132834 45 264 0.9 6.1 0.00 0.19 0.00 93 1004.2
20260507131333 45 264 0.9 3.5 0.00 0.19 0.00 93 1004.2
20260507125830 45 264 0.9 5.2 0.00 0.20 0.00 93 1004.2
20260507124329 45 263 0.9 5.2 0.00 0.20 0.00 94 1004.2
20260507122834 44 264 1.7 9.6 0.00 0.21 0.00 93 1004.3
20260507115823 44 221 1.7 4.3 0.00 0.23 0.00 93 1004.3
20260507114321 44 221 0.9 4.3 0.00 0.25 0.00 93 1004.3
20260507111321 44 219 0.9 4.3 0.00 0.26 0.00 93 1004.3
20260507105824 44 219 0.9 5.2 0.00 0.26 0.00 93 1004.4
20260507104320 44 265 0.9 6.1 0.00 0.26 0.00 93 1004.4
20260507102821 44 275 0.9 3.5 0.00 0.26 0.00 93 1004.4
20260507101321 44 275 0.9 5.2 0.00 0.26 0.00 93 1004.3
20260507095819 44 275 0.0 1.7 0.00 0.26 0.00 92 1004.0
20260507094319 44 275 0.0 2.6 0.00 0.26 0.00 93 1004.1
20260507092818 44 275 0.0 2.6 0.00 0.26 0.00 93 1004.3
20260507091311 44 275 0.9 5.2 0.00 0.26 0.00 93 1004.4
20260507082807 44 275 0.9 3.5 0.00 0.26 0.00 93 1004.7
20260507081306 44 275 0.0 1.7 0.00 0.26 0.00 93 1004.6
20260507075803 44 275 0.0 0.0 0.00 0.26 0.00 93 1004.4
20260507074303 44 275 0.0 0.0 0.00 0.26 0.00 93 1004.5
20260507072803 44 275 0.0 0.0 0.00 0.26 0.00 93 1004.5
20260507071301 44 275 0.0 0.0 0.00 0.26 0.00 93 1004.6
20260507065758 44 275 0.0 0.0 0.00 0.26 0.00 94 1004.7